2024-159E

Last updated on Thu Sep 19 2024 00:02:04 GMT+0000 (Coordinated Universal Time)

1 61015U 24159E 24262.38837142 .00018588 00000+0 13886-2 0 9993 2 61015 50.0049 180.2878 0007506 316.2842 43.7509 15.02766883 1871
UTC large
Height (km)
Speed (km/s)
/
Latitude / Longitude
Inclination (degrees)
Orbital Period (minutes)
Azimuth
Elevation
Range (km)
Doppler Factor

Next 0 passes for location: London (51.5072 / 0.1276)

Sorry there are no passes over London.